Weather History for Laurens, SC

Change the Weather History Date:

Monday, November 12, 2012

  Actual Average (KGSP) Record (KGSP)
Temperature  
Mean Temperature 63 °F 54 °F  
Max Temperature 73 °F 65 °F 81 °F (1989)
Min Temperature 53 °F 42 °F 19 °F (1913)
Degree Days  
Heating Degree Days 2 12  
Month to date heating degree days 121  
Since 1 July heating degree days 291  
Cooling Degree Days 0 0  
Month to date cooling degree days 0  
Year to date cooling degree days 1710  
Growing Degree Days 13 (Base 50)    
Moisture  
Dew Point 59 °F    
Average Humidity 90    
Maximum Humidity 100    
Minimum Humidity 57    
Precipitation  
Precipitation 0.04 in 0.11 in 1.93 in (1992)
Month to date precipitation 1.33  
Year to date precipitation 40.71  
Snow  
Snow 0.00 in 0.00 in T in (1968)
Month to date snowfall 0.0  
Since 1 July snowfall 0.0  
Since 1 September snowfall 0.0  
Snow Depth -    
Sea Level Pressure  
Sea Level Pressure 30.28 in    
Wind  
Wind Speed 5 mph (South)    
Max Wind Speed 16 mph    
Max Gust Speed 22 mph    
Visibility 9 miles    
Events Rain    
T = Trace of Precipitation, MM = Missing Value Source: NWS Daily Summary

Daily Weather History Graph

Daily Weather History Graph

Search for Another Location

Airport:

Trip Planner

Search our weather history database for the weather conditions in past years. The results will help you decide how hot, cold, wet, or windy it might be!

Date:

Astronomy

Nov. 12, 2012 Rise Set
Actual Time 6:58 AM EST 5:24 PM EST
Civil Twilight 6:32 AM EST 5:51 PM EST
Nautical Twilight 6:01 AM EST 6:21 PM EST
Astronomical Twilight 5:32 AM EST 6:51 PM EST
Moon 5:24 AM EST (11/12) 4:27 PM EST (11/12)
Length of Visible Light 11h 19m
Length of Day
10h 25m
Waning Crescent, 2% of the Moon is Illuminated
Nov 12
Waning Crescent
Nov 13
New
Nov 20
First Quarter
Nov 28
Full
Dec 6
Last Quarter

Hourly Weather History & Observations

Time (EST) Temp. Dew Point Humidity Pressure Visibility Wind Dir Wind Speed Gust Speed Precip Events Conditions
12:15 AM 60.8 °F 57.2 °F 88% 30.38 in 10.0 mi SE 5.8 mph - N/A   Clear
12:35 AM 60.8 °F 57.2 °F 88% 30.38 in 10.0 mi South 3.5 mph - N/A   Clear
1:15 AM 59.0 °F 55.4 °F 88% 30.38 in 10.0 mi Calm Calm - N/A   Mostly Cloudy
1:55 AM 59.0 °F 59.0 °F 100% 30.37 in 10.0 mi ESE 5.8 mph - N/A   Scattered Clouds
2:15 AM 57.2 °F 57.2 °F 100% 30.37 in 10.0 mi Calm Calm - N/A   Clear
2:55 AM 53.6 °F 53.6 °F 100% 30.37 in 10.0 mi Calm Calm - N/A   Mostly Cloudy
3:15 AM 55.4 °F 55.4 °F 100% 30.36 in 10.0 mi East 4.6 mph - N/A   Scattered Clouds
3:35 AM 55.4 °F 55.4 °F 100% 30.35 in 10.0 mi ESE 3.5 mph - N/A   Clear
3:55 AM 55.4 °F 55.4 °F 100% 30.35 in 10.0 mi ESE 3.5 mph - N/A   Clear
4:15 AM 55.4 °F 55.4 °F 100% 30.35 in 7.0 mi East 3.5 mph - N/A   Clear
4:35 AM 55.4 °F 55.4 °F 100% 30.34 in 7.0 mi ESE 3.5 mph - N/A   Clear
4:55 AM 55.4 °F 55.4 °F 100% 30.34 in 7.0 mi ESE 3.5 mph - N/A   Clear
5:15 AM 55.4 °F 55.4 °F 100% 30.34 in 7.0 mi ESE 3.5 mph - N/A   Clear
5:35 AM 55.4 °F 55.4 °F 100% 30.33 in 7.0 mi ESE 4.6 mph - N/A   Clear
5:55 AM 55.4 °F 55.4 °F 100% 30.33 in 7.0 mi East 3.5 mph - N/A   Clear
6:15 AM 55.4 °F 55.4 °F 100% 30.33 in 5.0 mi Calm Calm - N/A   Clear
6:35 AM 53.6 °F 53.6 °F 100% 30.33 in 5.0 mi Calm Calm - N/A   Scattered Clouds
6:55 AM 53.6 °F 53.6 °F 100% 30.33 in 5.0 mi Calm Calm - N/A   Clear
7:55 AM 55.4 °F 55.4 °F 100% 30.34 in 4.0 mi Calm Calm - N/A   Clear
8:15 AM 55.4 °F 55.4 °F 100% 30.35 in 5.0 mi Calm Calm - N/A   Scattered Clouds
8:35 AM 57.2 °F 57.2 °F 100% 30.35 in 5.0 mi Calm Calm - N/A   Mostly Cloudy
8:55 AM 59.0 °F 59.0 °F 100% 30.35 in 7.0 mi SE 3.5 mph - N/A   Overcast
9:15 AM 60.8 °F 60.8 °F 100% 30.35 in 10.0 mi South 5.8 mph - N/A   Overcast
9:35 AM 64.4 °F 60.8 °F 88% 30.35 in 10.0 mi South 8.1 mph - N/A   Mostly Cloudy
9:55 AM 66.2 °F 60.8 °F 83% 30.35 in 10.0 mi South 9.2 mph - N/A   Mostly Cloudy
10:15 AM 68.0 °F 59.0 °F 73% 30.35 in 10.0 mi SSE 9.2 mph - N/A   Mostly Cloudy
10:55 AM 69.8 °F 59.0 °F 68% 30.34 in 7.0 mi South 15.0 mph 19.6 mph N/A   Overcast
11:15 AM 69.8 °F 59.0 °F 68% 30.33 in 10.0 mi South 16.1 mph 20.7 mph N/A   Mostly Cloudy
11:35 AM 71.6 °F 59.0 °F 64% 30.31 in 10.0 mi South 11.5 mph 21.9 mph N/A   Mostly Cloudy
11:55 AM 71.6 °F 59.0 °F 64% 30.30 in 10.0 mi SSW 11.5 mph 20.7 mph N/A   Mostly Cloudy
12:15 PM 71.6 °F 59.0 °F 64% 30.29 in 10.0 mi SSW 11.5 mph 16.1 mph N/A   Overcast
12:35 PM 71.6 °F 57.2 °F 60% 30.28 in 10.0 mi SSW 9.2 mph 17.3 mph N/A   Overcast
12:55 PM 71.6 °F 57.2 °F 60% 30.27 in 10.0 mi SSW 11.5 mph - N/A   Overcast
1:15 PM 73.4 °F 57.2 °F 57% 30.25 in 10.0 mi SW 11.5 mph 16.1 mph N/A   Mostly Cloudy
1:35 PM 71.6 °F 57.2 °F 60% 30.24 in 10.0 mi South 8.1 mph - N/A   Mostly Cloudy
1:55 PM 71.6 °F 59.0 °F 64% 30.24 in 10.0 mi South 8.1 mph 16.1 mph N/A   Overcast
2:15 PM 66.2 °F 62.6 °F 88% 30.23 in 7.0 mi South 4.6 mph - 0.01 in Rain Light Rain
2:35 PM 66.2 °F 64.4 °F 94% 30.23 in 10.0 mi SSW 3.5 mph - 0.01 in   Overcast
2:55 PM 68.0 °F 62.6 °F 83% 30.22 in 10.0 mi SW 3.5 mph - 0.01 in   Overcast
3:35 PM 64.4 °F 60.8 °F 88% 30.21 in 7.0 mi SSE 8.1 mph 11.5 mph N/A   Light Drizzle
3:55 PM 66.2 °F 60.8 °F 83% 30.21 in 10.0 mi SSE 5.8 mph - N/A   Overcast
4:15 PM 66.2 °F 60.8 °F 83% 30.22 in 10.0 mi South 5.8 mph - N/A   Mostly Cloudy
4:35 PM 66.2 °F 60.8 °F 83% 30.22 in 10.0 mi South 5.8 mph - N/A   Mostly Cloudy
4:55 PM 66.2 °F 60.8 °F 83% 30.23 in 10.0 mi SSW 4.6 mph - N/A   Mostly Cloudy
5:15 PM 66.2 °F 60.8 °F 83% 30.22 in 10.0 mi South 5.8 mph - N/A   Overcast
5:35 PM 66.2 °F 60.8 °F 83% 30.22 in 10.0 mi South 5.8 mph - N/A   Mostly Cloudy
5:55 PM 64.4 °F 60.8 °F 88% 30.19 in 10.0 mi SSE 8.1 mph - N/A   Mostly Cloudy
6:15 PM 64.4 °F 60.8 °F 88% 30.18 in 7.0 mi South 12.7 mph 20.7 mph 0.01 in Rain Rain
6:35 PM 64.4 °F 62.6 °F 94% 30.19 in 10.0 mi Calm Calm - 0.03 in Rain Light Rain
6:55 PM 62.6 °F 62.6 °F 100% 30.20 in 10.0 mi Calm Calm - 0.03 in   Light Drizzle
7:15 PM 62.6 °F 62.6 °F 100% 30.20 in 10.0 mi Calm Calm - N/A Rain Light Rain
7:35 PM 62.6 °F 62.6 °F 100% 30.21 in 10.0 mi SSW 3.5 mph - N/A   Scattered Clouds
7:55 PM 62.6 °F 62.6 °F 100% 30.21 in 10.0 mi SSW 5.8 mph - N/A   Mostly Cloudy
8:15 PM 62.6 °F 62.6 °F 100% 30.20 in 10.0 mi South 5.8 mph - N/A   Overcast
8:35 PM 62.6 °F 62.6 °F 100% 30.21 in 10.0 mi South 6.9 mph - N/A   Overcast
8:55 PM 62.6 °F 62.6 °F 100% 30.20 in 10.0 mi South 8.1 mph - N/A   Mostly Cloudy
9:15 PM 62.6 °F 62.6 °F 100% 30.19 in 10.0 mi South 6.9 mph - N/A   Mostly Cloudy
9:35 PM 62.6 °F 62.6 °F 100% 30.19 in 10.0 mi South 5.8 mph - N/A   Mostly Cloudy
9:55 PM 62.6 °F 62.6 °F 100% 30.20 in 10.0 mi SSW 3.5 mph - N/A   Mostly Cloudy
10:15 PM 60.8 °F 60.8 °F 100% 30.19 in 10.0 mi South 5.8 mph - N/A   Light Drizzle
10:35 PM 62.6 °F 62.6 °F 100% 30.20 in 10.0 mi SSW 5.8 mph - N/A   Scattered Clouds
10:55 PM 60.8 °F 60.8 °F 100% 30.20 in 10.0 mi SSW 4.6 mph - N/A   Mostly Cloudy
11:15 PM 60.8 °F 60.8 °F 100% 30.20 in 10.0 mi SW 3.5 mph - N/A   Overcast
11:35 PM 60.8 °F 60.8 °F 100% 30.20 in 10.0 mi Calm Calm - N/A   Overcast
11:55 PM 60.8 °F 60.8 °F 100% 30.19 in 10.0 mi Calm Calm - N/A   Overcast